Time,TemperatureF,DewpointF,PressureIn,WindDirection,WindDirectionDegrees,WindSpeedMPH,WindSpeedGustMPH,Humidity,HourlyPrecipIn,Conditions,Clouds,dailyrainin,SoftwareType,DateUTC
2013-10-01 00:01:00,52.2,51.3,30.11,SW,215,0.0,0.0,97,0.00,,,0.00,meteohub,2013-10-01 04:01:00,
2013-10-01 00:06:00,52.2,51.3,30.11,SW,215,0.0,0.0,97,0.00,,,0.00,meteohub,2013-10-01 04:06:00,
2013-10-01 00:11:00,52.0,51.1,30.12,SW,215,0.0,0.0,97,0.00,,,0.00,meteohub,2013-10-01 04:11:00,
2013-10-01 00:17:00,52.2,51.3,30.11,SW,216,0.0,0.0,97,0.00,,,0.00,meteohub,2013-10-01 04:17:00,
2013-10-01 00:22:00,52.2,51.3,30.11,SW,215,0.0,0.0,97,0.00,,,0.00,meteohub,2013-10-01 04:22:00,
2013-10-01 00:27:00,52.0,51.1,30.12,SW,216,0.0,0.0,97,0.00,,,0.00,meteohub,2013-10-01 04:27:00,
2013-10-01 00:32:00,52.0,51.1,30.12,SW,216,0.0,0.0,97,0.00,,,0.00,meteohub,2013-10-01 04:32:00,
2013-10-01 00:37:00,52.2,51.3,30.12,SW,215,0.0,0.0,97,0.00,,,0.00,meteohub,2013-10-01 04:37:00,
2013-10-01 00:42:00,52.2,51.3,30.11,SW,215,0.0,0.0,97,0.00,,,0.00,meteohub,2013-10-01 04:42:00,
2013-10-01 00:47:00,52.0,51.1,30.11,SW,215,0.0,0.0,97,0.00,,,0.00,meteohub,2013-10-01 04:47:00,
2013-10-01 00:52:00,51.8,50.9,30.11,SW,215,0.0,0.0,97,0.00,,,0.00,meteohub,2013-10-01 04:52:00,
2013-10-01 00:57:00,51.6,50.7,30.11,SW,215,0.0,0.0,97,0.00,,,0.00,meteohub,2013-10-01 04:57:00,
2013-10-01 01:02:00,51.8,50.9,30.11,SW,215,0.0,0.0,97,0.00,,,0.00,meteohub,2013-10-01 05:02:00,
2013-10-01 01:07:00,52.0,51.1,30.11,SW,215,0.0,0.0,97,0.00,,,0.00,meteohub,2013-10-01 05:07:00,
2013-10-01 01:12:00,52.0,51.1,30.11,SW,215,0.0,0.0,97,0.00,,,0.00,meteohub,2013-10-01 05:12:00,
2013-10-01 01:17:00,52.2,51.3,30.11,SW,215,0.0,0.0,97,0.00,,,0.00,meteohub,2013-10-01 05:17:00,
2013-10-01 01:22:00,52.2,51.3,30.11,SW,215,0.0,0.0,97,0.00,,,0.00,meteohub,2013-10-01 05:22:00,
2013-10-01 01:27:00,52.2,51.3,30.11,SW,215,0.0,0.0,97,0.00,,,0.00,meteohub,2013-10-01 05:27:00,
2013-10-01 01:32:00,52.0,51.1,30.11,SW,215,0.0,0.0,97,0.00,,,0.00,meteohub,2013-10-01 05:32:00,
2013-10-01 01:37:00,51.8,50.9,30.11,SW,215,0.0,0.0,97,0.00,,,0.00,meteohub,2013-10-01 05:37:00,
2013-10-01 01:42:00,52.0,51.1,30.11,SW,216,0.0,0.0,97,0.00,,,0.00,meteohub,2013-10-01 05:42:00,
2013-10-01 01:47:00,51.8,50.9,30.10,SW,216,0.0,0.0,97,0.00,,,0.00,meteohub,2013-10-01 05:47:00,
2013-10-01 01:52:00,52.0,51.1,30.10,SW,215,0.0,0.0,97,0.00,,,0.00,meteohub,2013-10-01 05:52:00,
2013-10-01 01:57:00,52.0,51.1,30.10,SW,215,0.0,0.0,97,0.00,,,0.00,meteohub,2013-10-01 05:57:00,
2013-10-01 02:02:00,52.0,51.1,30.11,SW,215,0.0,0.0,97,0.00,,,0.00,meteohub,2013-10-01 06:02:00,
2013-10-01 02:07:00,52.0,51.1,30.11,SW,215,0.0,0.0,97,0.00,,,0.00,meteohub,2013-10-01 06:07:00,
2013-10-01 02:12:00,52.0,51.1,30.11,SW,216,0.0,0.0,97,0.00,,,0.00,meteohub,2013-10-01 06:12:00,
2013-10-01 02:17:00,51.6,50.7,30.11,SW,215,0.0,0.0,97,0.00,,,0.00,meteohub,2013-10-01 06:17:00,
2013-10-01 02:22:00,51.6,50.7,30.11,SW,215,0.0,0.0,97,0.00,,,0.00,meteohub,2013-10-01 06:22:00,
2013-10-01 02:27:00,51.6,50.7,30.11,SW,215,0.0,0.0,97,0.00,,,0.00,meteohub,2013-10-01 06:27:00,
2013-10-01 02:32:00,51.8,50.9,30.11,SW,215,0.0,0.0,97,0.00,,,0.00,meteohub,2013-10-01 06:32:00,
2013-10-01 02:37:00,51.8,50.9,30.11,SW,216,0.0,0.0,97,0.00,,,0.00,meteohub,2013-10-01 06:37:00,
2013-10-01 02:42:00,51.8,50.9,30.11,SW,215,0.0,0.0,97,0.00,,,0.00,meteohub,2013-10-01 06:42:00,
2013-10-01 02:47:00,51.6,50.7,30.11,SW,215,0.0,0.0,97,0.00,,,0.00,meteohub,2013-10-01 06:47:00,
2013-10-01 02:52:00,51.6,50.7,30.11,SW,215,0.0,0.0,97,0.00,,,0.00,meteohub,2013-10-01 06:52:00,
2013-10-01 02:57:00,51.6,50.7,30.11,SW,215,0.0,0.0,97,0.00,,,0.00,meteohub,2013-10-01 06:57:00,
2013-10-01 03:02:00,51.6,50.7,30.11,SW,215,0.0,0.0,97,0.00,,,0.00,meteohub,2013-10-01 07:02:00,
2013-10-01 03:07:00,51.6,50.7,30.11,SW,215,0.0,0.0,97,0.00,,,0.00,meteohub,2013-10-01 07:07:00,
2013-10-01 03:12:00,51.6,50.7,30.11,SW,215,0.0,0.0,97,0.00,,,0.00,meteohub,2013-10-01 07:12:00,
2013-10-01 03:17:00,51.6,50.7,30.11,SW,215,0.0,0.0,97,0.00,,,0.00,meteohub,2013-10-01 07:17:00,
2013-10-01 03:22:00,51.6,50.7,30.11,SW,215,0.0,0.0,97,0.00,,,0.00,meteohub,2013-10-01 07:22:00,
2013-10-01 03:27:00,51.4,50.5,30.11,SW,215,0.0,0.0,97,0.00,,,0.00,meteohub,2013-10-01 07:27:00,
2013-10-01 03:32:00,51.4,50.5,30.11,SW,216,0.0,0.0,97,0.00,,,0.00,meteohub,2013-10-01 07:32:00,
2013-10-01 03:38:00,51.4,50.5,30.11,SW,216,0.0,0.0,97,0.00,,,0.00,meteohub,2013-10-01 07:38:00,
2013-10-01 03:43:00,51.4,50.5,30.11,SW,216,0.0,0.0,97,0.00,,,0.00,meteohub,2013-10-01 07:43:00,
2013-10-01 03:48:00,51.6,50.7,30.11,SW,216,0.0,0.0,97,0.00,,,0.00,meteohub,2013-10-01 07:48:00,
2013-10-01 03:53:00,51.6,50.7,30.11,SW,216,0.0,0.0,97,0.00,,,0.00,meteohub,2013-10-01 07:53:00,
2013-10-01 03:58:00,51.6,50.7,30.11,SW,215,0.0,0.0,97,0.00,,,0.00,meteohub,2013-10-01 07:58:00,
2013-10-01 04:03:00,51.6,50.7,30.11,SW,215,0.0,0.0,97,0.00,,,0.00,meteohub,2013-10-01 08:03:00,
2013-10-01 04:08:00,51.6,50.7,30.11,SW,216,0.0,0.0,97,0.00,,,0.00,meteohub,2013-10-01 08:08:00,
2013-10-01 04:13:00,51.6,50.7,30.11,SW,215,0.0,0.0,97,0.00,,,0.00,meteohub,2013-10-01 08:13:00,
2013-10-01 04:18:00,51.8,50.9,30.11,SW,215,0.0,0.0,97,0.00,,,0.00,meteohub,2013-10-01 08:18:00,
2013-10-01 04:23:00,51.8,50.9,30.11,SW,215,0.0,0.0,97,0.00,,,0.00,meteohub,2013-10-01 08:23:00,
2013-10-01 04:28:00,51.4,50.5,30.11,SW,215,0.0,0.0,97,0.00,,,0.00,meteohub,2013-10-01 08:28:00,
2013-10-01 04:33:00,51.4,50.5,30.11,SW,215,0.0,0.0,97,0.00,,,0.00,meteohub,2013-10-01 08:33:00,
2013-10-01 04:38:00,51.6,50.7,30.11,SW,215,0.0,0.0,97,0.00,,,0.00,meteohub,2013-10-01 08:38:00,
2013-10-01 04:43:00,52.2,51.6,30.11,SW,215,0.0,0.0,98,0.00,,,0.00,meteohub,2013-10-01 08:43:00,
2013-10-01 04:48:00,52.3,51.8,30.11,SW,216,0.0,0.0,98,0.00,,,0.00,meteohub,2013-10-01 08:48:00,
2013-10-01 04:53:00,52.2,51.6,30.11,SW,216,0.0,0.0,98,0.00,,,0.00,meteohub,2013-10-01 08:53:00,
2013-10-01 04:58:00,52.0,51.4,30.12,SW,216,0.0,0.0,98,0.00,,,0.00,meteohub,2013-10-01 08:58:00,
2013-10-01 05:03:00,52.0,51.4,30.12,SW,215,0.0,0.0,98,0.00,,,0.00,meteohub,2013-10-01 09:03:00,
2013-10-01 05:08:00,51.8,51.3,30.12,SW,216,0.0,0.0,98,0.00,,,0.00,meteohub,2013-10-01 09:08:00,
2013-10-01 05:13:00,51.8,51.3,30.12,SW,215,0.0,0.0,98,0.00,,,0.00,meteohub,2013-10-01 09:13:00,
2013-10-01 05:18:00,51.6,51.1,30.12,SW,216,0.0,0.0,98,0.00,,,0.00,meteohub,2013-10-01 09:18:00,
2013-10-01 05:23:00,51.4,50.9,30.12,SW,216,0.0,0.0,98,0.00,,,0.00,meteohub,2013-10-01 09:23:00,
2013-10-01 05:29:00,51.3,50.7,30.12,SW,215,0.0,0.0,98,0.00,,,0.00,meteohub,2013-10-01 09:29:00,
2013-10-01 05:34:00,51.1,50.5,30.12,SW,215,0.0,0.0,98,0.00,,,0.00,meteohub,2013-10-01 09:34:00,
2013-10-01 05:39:00,51.3,50.7,30.13,SW,215,0.0,0.0,98,0.00,,,0.00,meteohub,2013-10-01 09:39:00,
2013-10-01 05:44:00,51.4,50.9,30.13,SW,216,0.0,0.0,98,0.00,,,0.00,meteohub,2013-10-01 09:44:00,
2013-10-01 05:49:00,51.4,50.9,30.13,SW,216,0.0,0.0,98,0.00,,,0.00,meteohub,2013-10-01 09:49:00,
2013-10-01 05:54:00,51.6,51.1,30.13,SW,215,0.0,0.0,98,0.00,,,0.00,meteohub,2013-10-01 09:54:00,
2013-10-01 05:59:00,52.0,51.4,30.14,SW,215,0.0,0.0,98,0.00,,,0.00,meteohub,2013-10-01 09:59:00,
2013-10-01 06:04:00,52.2,51.6,30.13,SW,215,0.0,0.0,98,0.00,,,0.00,meteohub,2013-10-01 10:04:00,
2013-10-01 06:09:00,52.2,51.6,30.13,SW,215,0.0,0.0,98,0.00,,,0.00,meteohub,2013-10-01 10:09:00,
2013-10-01 06:14:00,52.2,51.6,30.14,SW,216,0.0,0.0,98,0.00,,,0.00,meteohub,2013-10-01 10:14:00,
2013-10-01 06:19:00,52.2,51.6,30.14,SW,215,0.0,0.0,98,0.00,,,0.00,meteohub,2013-10-01 10:19:00,
2013-10-01 06:25:00,52.0,51.4,30.14,SW,216,0.0,0.0,98,0.00,,,0.00,meteohub,2013-10-01 10:25:00,
2013-10-01 06:30:00,51.6,51.1,30.14,SW,216,0.0,0.0,98,0.00,,,0.00,meteohub,2013-10-01 10:30:00,
2013-10-01 06:35:00,51.6,51.1,30.14,SW,215,0.0,0.0,98,0.00,,,0.00,meteohub,2013-10-01 10:35:00,
2013-10-01 06:40:00,51.6,51.1,30.14,SW,216,0.0,0.0,98,0.00,,,0.00,meteohub,2013-10-01 10:40:00,
2013-10-01 06:45:00,51.3,50.7,30.14,SW,215,0.0,0.0,98,0.00,,,0.00,meteohub,2013-10-01 10:45:00,
2013-10-01 06:50:00,51.1,50.5,30.14,SW,216,0.0,0.0,98,0.00,,,0.00,meteohub,2013-10-01 10:50:00,
2013-10-01 06:55:00,50.9,50.4,30.14,SW,215,0.0,0.0,98,0.00,,,0.00,meteohub,2013-10-01 10:55:00,
2013-10-01 07:00:00,50.9,50.4,30.15,SW,216,0.0,0.0,98,0.00,,,0.00,meteohub,2013-10-01 11:00:00,
2013-10-01 07:05:00,51.1,50.5,30.15,SW,215,0.0,0.0,98,0.00,,,0.00,meteohub,2013-10-01 11:05:00,
2013-10-01 07:10:00,50.9,50.4,30.15,SW,216,0.0,0.0,98,0.00,,,0.00,meteohub,2013-10-01 11:10:00,
2013-10-01 07:15:00,50.9,50.4,30.15,SW,216,0.0,0.0,98,0.00,,,0.00,meteohub,2013-10-01 11:15:00,
2013-10-01 07:20:00,50.9,50.4,30.15,SW,216,0.0,0.0,98,0.00,,,0.00,meteohub,2013-10-01 11:20:00,
2013-10-01 07:25:00,50.7,50.2,30.15,SW,215,0.0,0.0,98,0.00,,,0.00,meteohub,2013-10-01 11:25:00,
2013-10-01 07:30:00,50.7,50.2,30.15,SW,216,0.0,0.0,98,0.00,,,0.00,meteohub,2013-10-01 11:30:00,
2013-10-01 07:35:00,50.7,50.2,30.16,SW,215,0.0,0.0,98,0.00,,,0.00,meteohub,2013-10-01 11:35:00,
2013-10-01 07:40:00,51.1,50.5,30.16,SW,216,0.0,0.0,98,0.00,,,0.00,meteohub,2013-10-01 11:40:00,
2013-10-01 07:46:00,50.9,50.4,30.16,SW,215,0.0,0.0,98,0.00,,,0.00,meteohub,2013-10-01 11:46:00,
2013-10-01 07:51:00,50.7,50.2,30.16,SW,215,0.0,0.0,98,0.00,,,0.00,meteohub,2013-10-01 11:51:00,
2013-10-01 07:56:00,50.5,50.0,30.16,SW,215,0.0,0.0,98,0.00,,,0.00,meteohub,2013-10-01 11:56:00,
2013-10-01 08:01:00,50.7,50.2,30.17,SW,215,0.0,0.0,98,0.00,,,0.00,meteohub,2013-10-01 12:01:00,
2013-10-01 08:06:00,50.7,50.2,30.16,SW,215,0.0,0.0,98,0.00,,,0.00,meteohub,2013-10-01 12:06:00,
2013-10-01 08:11:00,50.5,50.0,30.17,SW,216,0.0,0.0,98,0.00,,,0.00,meteohub,2013-10-01 12:11:00,
2013-10-01 08:16:00,50.7,50.2,30.17,SW,215,0.0,0.0,98,0.00,,,0.00,meteohub,2013-10-01 12:16:00,
2013-10-01 08:21:00,50.7,50.2,30.17,SW,215,0.0,0.0,98,0.00,,,0.00,meteohub,2013-10-01 12:21:00,
2013-10-01 08:26:00,51.4,50.9,30.17,SW,215,0.0,0.0,98,0.00,,,0.00,meteohub,2013-10-01 12:26:00,
2013-10-01 08:31:00,52.0,51.4,30.17,SW,215,0.0,0.0,98,0.00,,,0.00,meteohub,2013-10-01 12:31:00,
2013-10-01 08:36:00,52.3,51.8,30.17,SW,216,0.0,0.0,98,0.00,,,0.00,meteohub,2013-10-01 12:36:00,
2013-10-01 08:41:00,52.7,52.2,30.17,SW,215,0.0,0.0,98,0.00,,,0.00,meteohub,2013-10-01 12:41:00,
2013-10-01 08:46:00,53.1,52.5,30.17,SW,215,0.0,0.0,98,0.00,,,0.00,meteohub,2013-10-01 12:46:00,
2013-10-01 08:51:00,54.3,53.8,30.17,SW,215,0.0,0.0,98,0.00,,,0.00,meteohub,2013-10-01 12:51:00,
2013-10-01 08:56:00,55.6,55.0,30.17,SW,215,0.0,0.0,98,0.00,,,0.00,meteohub,2013-10-01 12:56:00,
2013-10-01 09:01:00,56.7,56.1,30.18,SW,215,0.0,0.0,98,0.00,,,0.00,meteohub,2013-10-01 13:01:00,
2013-10-01 09:06:00,57.2,56.7,30.18,SW,215,0.0,0.0,98,0.00,,,0.00,meteohub,2013-10-01 13:06:00,
2013-10-01 09:11:00,57.6,57.0,30.17,SW,215,0.0,0.0,98,0.00,,,0.00,meteohub,2013-10-01 13:11:00,
2013-10-01 09:16:00,58.3,57.7,30.17,SW,215,0.0,0.0,98,0.00,,,0.00,meteohub,2013-10-01 13:16:00,
2013-10-01 09:21:00,58.3,57.7,30.18,SW,215,0.0,0.0,98,0.00,,,0.00,meteohub,2013-10-01 13:21:00,
2013-10-01 09:26:00,58.5,57.9,30.17,SW,217,0.0,0.0,98,0.00,,,0.00,meteohub,2013-10-01 13:26:00,
2013-10-01 09:31:00,58.5,57.9,30.18,SW,217,0.0,0.0,98,0.00,,,0.00,meteohub,2013-10-01 13:31:00,
2013-10-01 09:37:00,58.8,58.3,30.18,SW,217,0.0,0.0,98,0.00,,,0.00,meteohub,2013-10-01 13:37:00,
2013-10-01 09:42:00,59.5,59.0,30.18,SW,217,0.0,0.0,98,0.00,,,0.00,meteohub,2013-10-01 13:42:00,
2013-10-01 09:47:00,60.1,59.5,30.18,SW,217,0.0,0.0,98,0.00,,,0.00,meteohub,2013-10-01 13:47:00,
2013-10-01 09:52:00,61.0,60.4,30.18,SW,217,0.0,0.0,98,0.00,,,0.00,meteohub,2013-10-01 13:52:00,
2013-10-01 09:57:00,61.3,60.8,30.18,SW,217,0.0,0.0,98,0.00,,,0.00,meteohub,2013-10-01 13:57:00,
2013-10-01 10:02:00,61.3,60.3,30.18,SW,217,0.0,0.0,96,0.00,,,0.00,meteohub,2013-10-01 14:02:00,
2013-10-01 10:07:00,61.5,59.5,30.18,SW,217,0.0,0.0,93,0.00,,,0.00,meteohub,2013-10-01 14:07:00,
2013-10-01 10:12:00,62.4,59.7,30.18,SW,217,0.0,0.0,91,0.00,,,0.00,meteohub,2013-10-01 14:12:00,
2013-10-01 10:17:00,63.5,59.5,30.18,SW,217,0.0,0.0,87,0.00,,,0.00,meteohub,2013-10-01 14:17:00,
2013-10-01 10:22:00,64.4,60.1,30.18,SW,217,0.0,0.0,86,0.00,,,0.00,meteohub,2013-10-01 14:22:00,
2013-10-01 10:27:00,65.5,59.9,30.18,SSW,212,0.0,0.0,82,0.00,,,0.00,meteohub,2013-10-01 14:27:00,
2013-10-01 10:32:00,65.7,59.4,30.18,SSW,212,0.0,1.0,80,0.00,,,0.00,meteohub,2013-10-01 14:32:00,
2013-10-01 10:37:00,66.0,59.0,30.18,SW,232,0.0,1.0,78,0.00,,,0.00,meteohub,2013-10-01 14:37:00,
2013-10-01 10:42:00,66.6,59.9,30.18,SW,232,0.0,1.0,79,0.00,,,0.00,meteohub,2013-10-01 14:42:00,
2013-10-01 10:47:00,66.7,58.1,30.18,SW,215,1.0,0.0,74,0.00,,,0.00,meteohub,2013-10-01 14:47:00,
2013-10-01 10:52:00,66.9,58.3,30.18,SSW,208,0.0,1.0,74,0.00,,,0.00,meteohub,2013-10-01 14:52:00,
2013-10-01 10:57:00,67.3,55.9,30.18,West,275,0.0,1.0,67,0.00,,,0.00,meteohub,2013-10-01 14:57:00,
2013-10-01 11:02:00,67.3,55.9,30.18,SW,221,0.0,1.0,67,0.00,,,0.00,meteohub,2013-10-01 15:02:00,
2013-10-01 11:08:00,67.8,55.6,30.17,WSW,255,0.0,0.0,65,0.00,,,0.00,meteohub,2013-10-01 15:08:00,
2013-10-01 11:13:00,67.8,56.1,30.17,West,281,0.0,1.0,66,0.00,,,0.00,meteohub,2013-10-01 15:13:00,
2013-10-01 11:18:00,68.2,55.0,30.17,WNW,287,0.0,1.0,63,0.00,,,0.00,meteohub,2013-10-01 15:18:00,
2013-10-01 11:23:00,68.4,55.8,30.18,NW,311,0.0,2.0,64,0.00,,,0.00,meteohub,2013-10-01 15:23:00,
2013-10-01 11:28:00,68.7,55.2,30.17,NW,309,0.0,2.0,62,0.00,,,0.00,meteohub,2013-10-01 15:28:00,
2013-10-01 11:33:00,68.7,54.3,30.17,SSW,203,3.0,3.0,60,0.00,,,0.00,meteohub,2013-10-01 15:33:00,
2013-10-01 11:38:00,68.9,54.5,30.17,SSW,205,1.0,4.0,60,0.00,,,0.00,meteohub,2013-10-01 15:38:00,
2013-10-01 11:43:00,69.3,54.9,30.17,South,191,1.0,4.0,60,0.00,,,0.00,meteohub,2013-10-01 15:43:00,
2013-10-01 11:48:00,69.3,54.9,30.17,West,264,0.0,4.0,60,0.00,,,0.00,meteohub,2013-10-01 15:48:00,
2013-10-01 11:54:00,69.6,55.9,30.17,NW,307,0.0,3.0,62,0.00,,,0.00,meteohub,2013-10-01 15:54:00,
2013-10-01 11:59:00,69.6,56.5,30.17,West,278,0.0,3.0,63,0.00,,,0.00,meteohub,2013-10-01 15:59:00,
2013-10-01 12:04:00,69.8,57.6,30.17,SSW,208,0.0,3.0,65,0.00,,,0.00,meteohub,2013-10-01 16:04:00,
2013-10-01 12:09:00,70.3,55.8,30.17,NW,307,0.0,3.0,60,0.00,,,0.00,meteohub,2013-10-01 16:09:00,
2013-10-01 12:15:00,70.5,55.6,30.17,West,263,0.0,4.0,59,0.00,,,0.00,meteohub,2013-10-01 16:15:00,
2013-10-01 12:20:00,70.5,55.9,30.17,NW,307,0.0,4.0,60,0.00,,,0.00,meteohub,2013-10-01 16:20:00,
2013-10-01 12:25:00,70.2,55.6,30.17,WNW,301,0.0,4.0,60,0.00,,,0.00,meteohub,2013-10-01 16:25:00,
2013-10-01 12:30:00,70.2,55.2,30.17,WSW,253,0.0,4.0,59,0.00,,,0.00,meteohub,2013-10-01 16:30:00,
2013-10-01 12:31:00,70.0,55.0,30.17,WNW,293,2.0,4.0,59,0.00,,,0.00,meteohub,2013-10-01 16:31:00,
2013-10-01 12:36:00,69.8,56.7,30.17,SSW,212,0.0,4.0,63,0.00,,,0.00,meteohub,2013-10-01 16:36:00,
2013-10-01 12:41:00,70.3,56.3,30.16,WNW,284,0.0,4.0,61,0.00,,,0.00,meteohub,2013-10-01 16:41:00,
2013-10-01 12:46:00,70.5,56.5,30.16,West,280,0.0,7.0,61,0.00,,,0.00,meteohub,2013-10-01 16:46:00,
2013-10-01 12:51:00,70.9,55.4,30.16,WSW,255,0.0,7.0,58,0.00,,,0.00,meteohub,2013-10-01 16:51:00,
2013-10-01 12:56:00,71.1,56.5,30.16,West,271,0.0,7.0,60,0.00,,,0.00,meteohub,2013-10-01 16:56:00,
2013-10-01 13:01:00,70.9,55.4,30.16,West,281,0.0,5.0,58,0.00,,,0.00,meteohub,2013-10-01 17:01:00,
2013-10-01 13:06:00,70.5,55.6,30.16,SSW,213,0.0,4.0,59,0.00,,,0.00,meteohub,2013-10-01 17:06:00,
2013-10-01 13:12:00,70.9,55.4,30.15,WNW,283,0.0,3.0,58,0.00,,,0.00,meteohub,2013-10-01 17:12:00,
2013-10-01 13:17:00,71.1,55.6,30.15,NE,49,0.0,3.0,58,0.00,,,0.00,meteohub,2013-10-01 17:17:00,
2013-10-01 13:22:00,71.1,55.6,30.15,West,276,0.0,1.0,58,0.00,,,0.00,meteohub,2013-10-01 17:22:00,
2013-10-01 13:27:00,71.1,55.6,30.15,West,261,0.0,0.0,58,0.00,,,0.00,meteohub,2013-10-01 17:27:00,
2013-10-01 13:32:00,71.2,57.0,30.14,West,278,0.0,0.0,61,0.00,,,0.00,meteohub,2013-10-01 17:32:00,
2013-10-01 13:37:00,71.2,56.1,30.14,ENE,60,0.0,0.0,59,0.00,,,0.00,meteohub,2013-10-01 17:37:00,
2013-10-01 13:42:00,71.4,55.4,30.14,WSW,253,0.0,1.0,57,0.00,,,0.00,meteohub,2013-10-01 17:42:00,
2013-10-01 13:47:00,71.6,55.0,30.13,SW,225,0.0,1.0,56,0.00,,,0.00,meteohub,2013-10-01 17:47:00,
2013-10-01 13:52:00,71.8,55.2,30.13,West,266,0.0,3.0,56,0.00,,,0.00,meteohub,2013-10-01 17:52:00,
2013-10-01 13:57:00,71.4,54.5,30.13,West,281,0.0,3.0,55,0.00,,,0.00,meteohub,2013-10-01 17:57:00,
2013-10-01 14:02:00,71.4,54.9,30.12,WNW,298,0.0,2.0,56,0.00,,,0.00,meteohub,2013-10-01 18:02:00,
2013-10-01 14:07:00,71.4,55.4,30.12,NNW,329,0.0,1.0,57,0.00,,,0.00,meteohub,2013-10-01 18:07:00,
2013-10-01 14:12:00,71.2,55.2,30.12,West,281,0.0,0.0,57,0.00,,,0.00,meteohub,2013-10-01 18:12:00,
2013-10-01 14:17:00,71.4,54.9,30.12,WSW,256,0.0,4.0,56,0.00,,,0.00,meteohub,2013-10-01 18:17:00,
2013-10-01 14:22:00,71.4,55.4,30.11,ENE,74,0.0,5.0,57,0.00,,,0.00,meteohub,2013-10-01 18:22:00,
2013-10-01 14:27:00,71.4,55.4,30.12,WNW,282,1.0,5.0,57,0.00,,,0.00,meteohub,2013-10-01 18:27:00,
2013-10-01 14:32:00,71.8,56.1,30.11,WNW,282,1.0,3.0,58,0.00,,,0.00,meteohub,2013-10-01 18:32:00,
2013-10-01 14:37:00,71.4,54.9,30.11,SSW,193,1.0,5.0,56,0.00,,,0.00,meteohub,2013-10-01 18:37:00,
2013-10-01 14:42:00,71.2,55.2,30.11,West,276,0.0,6.0,57,0.00,,,0.00,meteohub,2013-10-01 18:42:00,
2013-10-01 14:47:00,71.2,56.1,30.11,NW,307,0.0,6.0,59,0.00,,,0.00,meteohub,2013-10-01 18:47:00,
2013-10-01 14:52:00,71.2,56.7,30.11,ESE,120,1.0,6.0,60,0.00,,,0.00,meteohub,2013-10-01 18:52:00,
2013-10-01 14:58:00,71.4,56.3,30.11,NW,306,0.0,4.0,59,0.00,,,0.00,meteohub,2013-10-01 18:58:00,
2013-10-01 15:03:00,71.4,56.8,30.11,West,266,0.0,3.0,60,0.00,,,0.00,meteohub,2013-10-01 19:03:00,
2013-10-01 15:08:00,71.4,56.8,30.11,WNW,288,0.0,3.0,60,0.00,,,0.00,meteohub,2013-10-01 19:08:00,
2013-10-01 15:14:00,72.0,57.4,30.11,SE,134,0.0,3.0,60,0.00,,,0.00,meteohub,2013-10-01 19:14:00,
2013-10-01 15:19:00,72.0,57.7,30.11,SSW,210,1.0,4.0,61,0.00,,,0.00,meteohub,2013-10-01 19:19:00,
2013-10-01 15:24:00,72.0,58.3,30.10,NNW,330,0.0,4.0,62,0.00,,,0.00,meteohub,2013-10-01 19:24:00,
2013-10-01 15:29:00,72.3,58.1,30.10,West,267,0.0,3.0,61,0.00,,,0.00,meteohub,2013-10-01 19:29:00,
2013-10-01 15:34:00,72.1,57.9,30.10,SSE,151,0.0,3.0,61,0.00,,,0.00,meteohub,2013-10-01 19:34:00,
2013-10-01 15:40:00,72.1,58.5,30.09,WNW,288,0.0,1.0,62,0.00,,,0.00,meteohub,2013-10-01 19:40:00,
2013-10-01 15:45:00,72.1,57.9,30.09,South,187,0.0,2.0,61,0.00,,,0.00,meteohub,2013-10-01 19:45:00,
2013-10-01 15:50:00,72.1,58.5,30.09,WNW,291,0.0,3.0,62,0.00,,,0.00,meteohub,2013-10-01 19:50:00,
2013-10-01 15:55:00,72.3,58.6,30.09,West,280,0.0,5.0,62,0.00,,,0.00,meteohub,2013-10-01 19:55:00,
2013-10-01 16:00:00,72.3,58.6,30.09,SSW,208,0.0,5.0,62,0.00,,,0.00,meteohub,2013-10-01 20:00:00,
2013-10-01 16:05:00,72.0,58.6,30.09,West,275,0.0,5.0,63,0.00,,,0.00,meteohub,2013-10-01 20:05:00,
2013-10-01 16:10:00,71.6,58.8,30.09,North,6,0.0,4.0,64,0.00,,,0.00,meteohub,2013-10-01 20:10:00,
2013-10-01 16:15:00,71.6,58.8,30.09,SSW,210,1.0,4.0,64,0.00,,,0.00,meteohub,2013-10-01 20:15:00,
2013-10-01 16:20:00,71.6,59.2,30.09,NE,37,0.0,3.0,65,0.00,,,0.00,meteohub,2013-10-01 20:20:00,
2013-10-01 16:25:00,71.8,59.4,30.09,West,275,3.0,3.0,65,0.00,,,0.00,meteohub,2013-10-01 20:25:00,
2013-10-01 16:30:00,71.2,58.8,30.09,West,276,0.0,3.0,65,0.00,,,0.00,meteohub,2013-10-01 20:30:00,
2013-10-01 16:35:00,70.5,58.1,30.09,WNW,297,0.0,3.0,65,0.00,,,0.00,meteohub,2013-10-01 20:35:00,
2013-10-01 16:40:00,70.3,58.8,30.08,West,281,0.0,3.0,67,0.00,,,0.00,meteohub,2013-10-01 20:40:00,
2013-10-01 16:45:00,70.2,59.2,30.08,NNW,340,0.0,0.0,68,0.00,,,0.00,meteohub,2013-10-01 20:45:00,
2013-10-01 16:50:00,70.2,58.6,30.08,ESE,118,1.0,2.0,67,0.00,,,0.00,meteohub,2013-10-01 20:50:00,
2013-10-01 16:55:00,70.3,59.4,30.08,WNW,284,0.0,3.0,68,0.00,,,0.00,meteohub,2013-10-01 20:55:00,
2013-10-01 17:00:00,70.5,59.4,30.08,NNE,33,2.0,3.0,68,0.00,,,0.00,meteohub,2013-10-01 21:00:00,
2013-10-01 17:05:00,70.5,59.4,30.08,WSW,256,0.0,3.0,68,0.00,,,0.00,meteohub,2013-10-01 21:05:00,
2013-10-01 17:10:00,70.3,59.4,30.08,West,271,0.0,3.0,68,0.00,,,0.00,meteohub,2013-10-01 21:10:00,
2013-10-01 17:15:00,70.3,59.7,30.08,West,271,0.0,3.0,69,0.00,,,0.00,meteohub,2013-10-01 21:15:00,
2013-10-01 17:20:00,70.2,59.5,30.09,West,271,0.0,0.0,69,0.00,,,0.00,meteohub,2013-10-01 21:20:00,
2013-10-01 17:25:00,70.2,59.9,30.08,West,277,0.0,0.0,70,0.00,,,0.00,meteohub,2013-10-01 21:25:00,
2013-10-01 17:30:00,70.0,59.7,30.08,WNW,287,0.0,0.0,70,0.00,,,0.00,meteohub,2013-10-01 21:30:00,
2013-10-01 17:35:00,69.4,59.2,30.09,SW,217,2.0,2.0,70,0.00,,,0.00,meteohub,2013-10-01 21:35:00,
2013-10-01 17:40:00,68.9,58.6,30.09,NE,39,0.0,2.0,70,0.00,,,0.00,meteohub,2013-10-01 21:40:00,
2013-10-01 17:45:00,68.5,58.8,30.09,East,84,0.0,2.0,71,0.00,,,0.00,meteohub,2013-10-01 21:45:00,
2013-10-01 17:51:00,68.4,59.0,30.09,South,184,1.0,2.0,72,0.00,,,0.00,meteohub,2013-10-01 21:51:00,
2013-10-01 17:56:00,68.2,58.1,30.09,South,169,0.0,2.0,70,0.00,,,0.00,meteohub,2013-10-01 21:56:00,
2013-10-01 18:01:00,67.8,58.1,30.09,SSE,148,1.0,2.0,71,0.00,,,0.00,meteohub,2013-10-01 22:01:00,
2013-10-01 18:06:00,67.3,58.3,30.09,South,181,0.0,3.0,73,0.00,,,0.00,meteohub,2013-10-01 22:06:00,
2013-10-01 18:12:00,66.9,58.3,30.09,South,174,0.0,3.0,74,0.00,,,0.00,meteohub,2013-10-01 22:12:00,
2013-10-01 18:17:00,66.4,58.6,30.09,SSE,166,0.0,3.0,76,0.00,,,0.00,meteohub,2013-10-01 22:17:00,
2013-10-01 18:22:00,66.0,58.6,30.09,SSE,167,0.0,2.0,77,0.00,,,0.00,meteohub,2013-10-01 22:22:00,
2013-10-01 18:27:00,66.0,59.0,30.09,SSE,166,0.0,0.0,78,0.00,,,0.00,meteohub,2013-10-01 22:27:00,
2013-10-01 18:32:00,65.8,59.2,30.09,SE,136,0.0,0.0,79,0.00,,,0.00,meteohub,2013-10-01 22:32:00,
2013-10-01 18:37:00,65.7,59.0,30.09,SE,136,0.0,0.0,79,0.00,,,0.00,meteohub,2013-10-01 22:37:00,
2013-10-01 18:42:00,65.5,58.8,30.10,SE,145,0.0,0.0,79,0.00,,,0.00,meteohub,2013-10-01 22:42:00,
2013-10-01 18:47:00,65.5,58.5,30.10,SW,214,0.0,0.0,78,0.00,,,0.00,meteohub,2013-10-01 22:47:00,
2013-10-01 18:52:00,65.3,57.9,30.10,SW,214,0.0,0.0,77,0.00,,,0.00,meteohub,2013-10-01 22:52:00,
2013-10-01 18:57:00,65.1,58.1,30.10,SW,214,0.0,0.0,78,0.00,,,0.00,meteohub,2013-10-01 22:57:00,
2013-10-01 19:02:00,65.1,58.5,30.10,SW,214,0.0,0.0,79,0.00,,,0.00,meteohub,2013-10-01 23:02:00,
2013-10-01 19:07:00,64.9,58.3,30.10,SW,214,0.0,0.0,79,0.00,,,0.00,meteohub,2013-10-01 23:07:00,
2013-10-01 19:12:00,64.8,58.8,30.10,SW,214,0.0,0.0,81,0.00,,,0.00,meteohub,2013-10-01 23:12:00,
2013-10-01 19:17:00,64.4,58.8,30.11,SW,214,0.0,0.0,82,0.00,,,0.00,meteohub,2013-10-01 23:17:00,
2013-10-01 19:20:00,64.2,59.0,30.10,SW,214,0.0,0.0,83,0.00,,,0.00,meteohub,2013-10-01 23:20:00,
2013-10-01 19:25:00,64.0,59.2,30.11,SW,214,0.0,0.0,84,0.00,,,0.00,meteohub,2013-10-01 23:25:00,
2013-10-01 19:30:00,63.9,59.0,30.11,East,97,0.0,0.0,84,0.00,,,0.00,meteohub,2013-10-01 23:30:00,
2013-10-01 19:35:00,63.7,58.8,30.11,East,97,0.0,0.0,84,0.00,,,0.00,meteohub,2013-10-01 23:35:00,
2013-10-01 19:40:00,63.5,58.8,30.11,East,97,0.0,0.0,85,0.00,,,0.00,meteohub,2013-10-01 23:40:00,
2013-10-01 19:45:00,63.3,59.0,30.11,East,97,0.0,0.0,86,0.00,,,0.00,meteohub,2013-10-01 23:45:00,
2013-10-01 19:50:00,63.1,59.2,30.11,East,97,0.0,0.0,87,0.00,,,0.00,meteohub,2013-10-01 23:50:00,
2013-10-01 19:55:00,63.0,58.6,30.11,East,97,0.0,0.0,86,0.00,,,0.00,meteohub,2013-10-01 23:55:00,
2013-10-01 20:00:00,62.8,58.8,30.11,East,97,0.0,0.0,87,0.00,,,0.00,meteohub,2013-10-02 00:00:00,
2013-10-01 20:05:00,62.8,58.8,30.12,East,97,0.0,0.0,87,0.00,,,0.00,meteohub,2013-10-02 00:05:00,
2013-10-01 20:10:00,62.4,58.5,30.12,East,98,0.0,0.0,87,0.00,,,0.00,meteohub,2013-10-02 00:10:00,
2013-10-01 20:15:00,62.4,58.8,30.12,East,97,0.0,0.0,88,0.00,,,0.00,meteohub,2013-10-02 00:15:00,
2013-10-01 20:16:00,62.2,58.6,30.12,East,98,0.0,0.0,88,0.00,,,0.00,meteohub,2013-10-02 00:16:00,
2013-10-01 20:21:00,62.1,58.5,30.12,East,97,0.0,0.0,88,0.00,,,0.00,meteohub,2013-10-02 00:21:00,
2013-10-01 20:26:00,61.9,58.6,30.12,East,97,0.0,0.0,89,0.00,,,0.00,meteohub,2013-10-02 00:26:00,
2013-10-01 20:31:00,61.5,57.9,30.12,East,97,0.0,0.0,88,0.00,,,0.00,meteohub,2013-10-02 00:31:00,
2013-10-01 20:36:00,61.2,57.6,30.12,East,98,0.0,0.0,88,0.00,,,0.00,meteohub,2013-10-02 00:36:00,
2013-10-01 20:41:00,61.0,57.4,30.12,East,97,0.0,0.0,88,0.00,,,0.00,meteohub,2013-10-02 00:41:00,
2013-10-01 20:46:00,60.6,57.0,30.12,East,97,0.0,0.0,88,0.00,,,0.00,meteohub,2013-10-02 00:46:00,
2013-10-01 20:51:00,60.4,56.8,30.12,East,98,0.0,0.0,88,0.00,,,0.00,meteohub,2013-10-02 00:51:00,
2013-10-01 20:57:00,60.3,56.7,30.13,East,98,0.0,0.0,88,0.00,,,0.00,meteohub,2013-10-02 00:57:00,
2013-10-01 21:02:00,60.3,57.0,30.13,East,98,0.0,0.0,89,0.00,,,0.00,meteohub,2013-10-02 01:02:00,
2013-10-01 21:07:00,60.3,57.4,30.13,East,98,0.0,0.0,90,0.00,,,0.00,meteohub,2013-10-02 01:07:00,
2013-10-01 21:12:00,60.3,57.4,30.13,East,97,0.0,0.0,90,0.00,,,0.00,meteohub,2013-10-02 01:12:00,
2013-10-01 21:17:00,60.3,57.4,30.13,East,98,0.0,0.0,90,0.00,,,0.00,meteohub,2013-10-02 01:17:00,
2013-10-01 21:22:00,60.3,57.4,30.14,East,97,0.0,0.0,90,0.00,,,0.00,meteohub,2013-10-02 01:22:00,
2013-10-01 21:27:00,60.3,57.6,30.14,East,98,0.0,0.0,91,0.00,,,0.00,meteohub,2013-10-02 01:27:00,
2013-10-01 21:32:00,60.3,57.6,30.14,East,98,0.0,0.0,91,0.00,,,0.00,meteohub,2013-10-02 01:32:00,
2013-10-01 21:37:00,60.3,57.6,30.14,East,98,0.0,0.0,91,0.00,,,0.00,meteohub,2013-10-02 01:37:00,
2013-10-01 21:42:00,60.3,57.6,30.14,East,98,0.0,0.0,91,0.00,,,0.00,meteohub,2013-10-02 01:42:00,
2013-10-01 21:47:00,60.1,57.7,30.14,East,97,0.0,0.0,92,0.00,,,0.00,meteohub,2013-10-02 01:47:00,
2013-10-01 21:52:00,60.1,57.7,30.14,East,97,0.0,0.0,92,0.00,,,0.00,meteohub,2013-10-02 01:52:00,
2013-10-01 21:57:00,59.7,57.4,30.14,East,98,0.0,0.0,92,0.00,,,0.00,meteohub,2013-10-02 01:57:00,
2013-10-01 22:02:00,59.7,57.4,30.14,East,98,0.0,0.0,92,0.00,,,0.00,meteohub,2013-10-02 02:02:00,
2013-10-01 22:07:00,59.7,57.7,30.14,East,97,0.0,0.0,93,0.00,,,0.00,meteohub,2013-10-02 02:07:00,
2013-10-01 22:12:00,59.5,57.6,30.14,East,97,0.0,0.0,93,0.00,,,0.00,meteohub,2013-10-02 02:12:00,
2013-10-01 22:17:00,59.5,57.2,30.14,East,98,0.0,0.0,92,0.00,,,0.00,meteohub,2013-10-02 02:17:00,
2013-10-01 22:22:00,59.4,57.4,30.14,East,98,0.0,0.0,93,0.00,,,0.00,meteohub,2013-10-02 02:22:00,
2013-10-01 22:27:00,59.4,57.4,30.14,East,98,0.0,0.0,93,0.00,,,0.00,meteohub,2013-10-02 02:27:00,
2013-10-01 22:32:00,59.4,57.4,30.15,East,97,0.0,0.0,93,0.00,,,0.00,meteohub,2013-10-02 02:32:00,
2013-10-01 22:37:00,59.2,57.2,30.14,East,97,0.0,0.0,93,0.00,,,0.00,meteohub,2013-10-02 02:37:00,
2013-10-01 22:42:00,59.2,57.2,30.15,East,97,0.0,0.0,93,0.00,,,0.00,meteohub,2013-10-02 02:42:00,
2013-10-01 22:47:00,58.8,56.8,30.15,East,98,0.0,0.0,93,0.00,,,0.00,meteohub,2013-10-02 02:47:00,
2013-10-01 22:52:00,58.8,56.8,30.15,East,98,0.0,0.0,93,0.00,,,0.00,meteohub,2013-10-02 02:52:00,
2013-10-01 22:57:00,58.5,56.5,30.15,East,97,0.0,0.0,93,0.00,,,0.00,meteohub,2013-10-02 02:57:00,
2013-10-01 23:02:00,58.3,56.3,30.15,East,97,0.0,0.0,93,0.00,,,0.00,meteohub,2013-10-02 03:02:00,
2013-10-01 23:07:00,58.1,56.1,30.15,East,98,0.0,0.0,93,0.00,,,0.00,meteohub,2013-10-02 03:07:00,
2013-10-01 23:12:00,57.9,55.9,30.15,East,98,0.0,0.0,93,0.00,,,0.00,meteohub,2013-10-02 03:12:00,
2013-10-01 23:17:00,57.6,55.8,30.15,East,97,0.0,0.0,94,0.00,,,0.00,meteohub,2013-10-02 03:17:00,
2013-10-01 23:22:00,57.4,55.6,30.15,East,98,0.0,0.0,94,0.00,,,0.00,meteohub,2013-10-02 03:22:00,
2013-10-01 23:27:00,57.0,55.2,30.15,East,98,0.0,0.0,94,0.00,,,0.00,meteohub,2013-10-02 03:27:00,
2013-10-01 23:32:00,56.8,55.2,30.15,East,98,0.0,0.0,94,0.00,,,0.00,meteohub,2013-10-02 03:32:00,
2013-10-01 23:37:00,56.7,55.0,30.15,East,98,0.0,0.0,94,0.00,,,0.00,meteohub,2013-10-02 03:37:00,
2013-10-01 23:42:00,56.5,54.9,30.15,East,97,0.0,0.0,94,0.00,,,0.00,meteohub,2013-10-02 03:42:00,
2013-10-01 23:47:00,56.1,54.7,30.15,East,97,0.0,0.0,95,0.00,,,0.00,meteohub,2013-10-02 03:47:00,
2013-10-01 23:52:00,55.9,54.5,30.15,East,98,0.0,0.0,95,0.00,,,0.00,meteohub,2013-10-02 03:52:00,
2013-10-01 23:57:00,55.8,54.3,30.15,East,97,0.0,0.0,95,0.00,,,0.00,meteohub,2013-10-02 03:57:00,